#timestamp,LO_Frequency,Hit,StdDev 
1688997615.2,286047000.9,N
1688997635.1,286046998.6,N
1688997636.0,286046998.6,N
1688997655.8,286046998.4,N
1688997675.7,286046998.3,N
1688997695.5,286046999.0,N
1688997715.3,286046999.4,N
1688997735.2,286046999.4,N
1688997755.0,286046998.7,N
1688997755.9,286046998.7,N
1688997775.7,286046996.9,N
1688997795.6,286046996.9,N
1688997815.4,286046999.5,N
1688997835.3,286046997.0,N
1688997855.1,286046996.9,N
1688997875.8,286046997.4,N
1688997895.7,286046997.4,N
1688997915.5,286046995.0,Y
1688997935.4,286046997.0,P
1688997955.2,286046996.9,N
1688997975.0,286046994.9,P
1688997975.9,286046994.9,Y
1688997995.8,286047001.2,P
1688998015.6,286047001.2,N
1688998035.4,286047001.0,N
1688998055.3,286047000.8,N
1688998075.1,286046998.3,N
1688998095.9,286046998.2,N
1688998115.7,286046998.7,N
1688998135.5,286046999.1,N
1688998155.4,286046999.6,N
1688998175.2,286046999.4,N
1688998195.0,286046996.5,N
1688998196.0,286046996.5,N
1688998215.8,286046996.9,N
1688998235.6,286046996.5,N
1688998255.5,286046996.6,N
1688998275.3,286046997.2,N
1688998295.1,286046997.9,N
1688998315.9,286046999.5,N
1688998335.7,286046999.0,N
1688998355.6,286046998.7,N
1688998375.4,286046999.5,N
1688998395.2,286046999.4,N
1688998415.1,286046999.0,N
1688998416.0,286046999.0,N
1688998435.8,286046998.3,N
1688998455.7,286046999.5,N
1688998475.5,286046999.1,N
1688998495.3,286046998.4,N
1688998515.2,286046998.8,N
1688998535.9,286046999.1,N
1688998555.7,286046999.0,N
1688998575.6,286046998.4,N
1688998595.4,286046998.4,N
1688998615.2,286047000.9,N
1688998635.1,286047002.0,N
1688998636.0,286047002.0,N
1688998655.8,286047002.7,N
1688998675.7,286046999.7,N
1688998695.5,286047002.8,N
1688998715.3,286047000.1,N
1688998735.2,286047000.2,N
1688998755.0,286047002.2,N
1688998755.9,286047002.2,N
1688998775.8,286047001.5,N
1688998795.6,286047002.3,N
1688998815.4,286047000.1,N
1688998835.3,286047002.6,N
1688998855.1,286047002.4,N
1688998875.8,286047001.9,N
1688998895.7,286047002.2,N
1688998915.5,286047002.3,N
1688998935.4,286047001.9,N
1688998955.2,286047004.1,N
1688998975.0,286047003.9,N
1688998975.9,286047003.9,N
1688998995.8,286047003.8,N
1688999015.6,286047003.8,N
1688999035.4,286047003.8,N
1688999055.3,286047003.5,N
1688999075.1,286047003.6,N
1688999095.9,286047003.6,N
1688999115.7,286047004.1,N
1688999135.5,286047003.6,N
1688999155.4,286047003.8,N
1688999175.2,286047003.6,N
1688999195.1,286047004.1,Y
1688999196.0,286047004.1,P
1688999215.8,286047000.1,N
1688999235.6,286046999.8,N
1688999255.5,286047002.7,N
1688999275.3,286047002.2,N
1688999295.1,286047002.3,N
1688999315.9,286047000.0,N
1688999335.7,286046999.9,N
1688999355.6,286047000.0,N
1688999375.4,286046999.7,N
1688999395.2,286047000.2,N
1688999415.1,286047001.8,N
1688999416.0,286047001.8,N
1688999435.8,286047001.4,N
1688999455.6,286047002.0,N
1688999475.5,286046999.8,N
1688999495.3,286047001.9,N
1688999515.2,286047004.4,Y
1688999535.9,286047002.4,P
1688999555.7,286047002.5,P
1688999575.6,286047002.3,P
1688999595.4,286047002.8,Y
1688999615.2,286047001.1,P
1688999635.1,286047000.5,N
1688999636.0,286047000.5,N
1688999655.8,286046998.3,N
1688999675.7,286046998.9,N
1688999695.5,286046998.5,N
1688999715.3,286047001.1,N
1688999735.2,286046998.1,N
1688999755.0,286046998.3,N
1688999755.9,286046998.3,N
1688999775.7,286046999.6,N
1688999795.6,286046999.2,N
1688999815.4,286046999.4,N
1688999835.3,286046996.8,N
1688999855.1,286046997.0,N
1688999856.0,286046997.0,N
1688999875.8,286046996.5,N
1688999895.7,286046999.2,N
1688999915.5,286046999.5,N
1688999935.3,286046997.1,N
1688999955.2,286046996.9,N
1688999975.0,286046999.6,N
1688999975.9,286046999.6,N
1688999995.8,286046999.2,N
1689000015.6,286046998.2,N
1689000035.4,286046999.4,N
1689000055.3,286047000.9,N
1689000075.1,286047000.4,N
1689000095.8,286047002.8,N
1689000115.7,286046998.1,N
1689000135.5,286047000.7,N
1689000155.4,286046999.3,N
1689000175.2,286046998.5,N
1689000195.0,286046998.8,N
1689000195.9,286046998.8,N
1689000215.8,286047000.5,N
1689000235.6,286047000.5,N
1689000255.4,286047000.2,N
1689000275.3,286047002.3,N
1689000295.1,286047000.6,N
1689000315.9,286047001.1,N
1689000335.7,286047001.0,N
1689000355.5,286047000.9,N
1689000375.4,286047000.9,N
1689000395.2,286047001.2,N
1689000415.0,286046999.3,N
1689000415.9,286046999.3,N
1689000435.8,286046998.7,N
1689000455.6,286046998.2,N
1689000475.5,286047000.8,N
1689000495.3,286047000.5,N
1689000515.1,286047001.2,N
1689000535.9,286047000.3,N
1689000555.7,286047000.3,N
1689000575.5,286046998.6,N
1689000595.4,286046998.4,N
1689000615.2,286046998.2,N
1689000635.1,286046998.7,N
1689000636.0,286046998.7,N
1689000655.8,286046998.1,N
1689000675.6,286046996.5,Y
1689000695.5,286046998.4,P
1689000715.3,286046998.2,N
1689000735.1,286046998.1,N
1689000755.9,286047000.7,N
1689000775.7,286047000.4,N
1689000795.6,286047002.3,N
1689000815.4,286047002.4,N
1689000835.2,286047002.0,N
1689000855.1,286047002.6,N
1689000856.0,286047002.6,N
1689000875.8,286046999.7,N
1689000895.6,286047000.2,N
1689000915.5,286047000.5,N
1689000935.3,286047000.0,N
1689000955.2,286047000.6,N
1689000975.9,286047000.7,N
1689000995.7,286046998.8,N
1689001015.6,286046996.9,N
1689001035.4,286046999.1,N
1689001055.2,286046996.6,N
1689001075.1,286046996.5,N
1689001076.0,286046996.5,N
1689001095.8,286046997.0,N
1689001115.7,286046996.8,N
1689001135.5,286046999.4,N
1689001155.3,286046998.1,N
1689001175.2,286046998.3,N
1689001195.0,286046998.2,N
1689001195.9,286046998.2,N
